COSMOS 2251 DEB, 34482

Orbit data source: Space-Track

COSMOS 2251 DEB, 34482 is space debris in LEO originally from a launch on Wed, 16 Jun 1993 UTC launched from the Plesetsk Missile And Space Complex (PKMTR). The debris from Iridium 33, an American commercial communications satellite, has been tracked extensively since its accidental collision with the defunct Russian satellite Cosmos 2251 in 2009. This event, occurring at high speed in low Earth orbit (LEO), generated thousands of pieces of space debris, significantly increasing the risk of further collisions. The Iridium 33 debris cloud has impacted space traffic management and orbital debris mitigation strategies, making it a subject of ongoing study in space situational awareness.

Loading next visibility...
Identifier
34482, 1993-036UB
Orbit
LEO
Country
Flag of CISCIS
Related business
Manufacturer
Unknown
Mission
Spacecraft
Bus & Motor
Unknown
Mass
Unknown
Launch date (UTC)
1993-06-16 (33 years ago)
Launch vehicle
Unknown
Launch site
Plesetsk Missile And Space Complex (PKMTR)
Object type
Payload
Rocket body
Debris
Shape & HBR
Unknown shape, 0.1 m
Radar Cross Section
Small (<0.1 m²)

Expand to show TLE details & history
Last TLE update: 5 hours ago

TLE from 5 hours ago
0 COSMOS 2251 DEB
1 34482U 93036UB  26035.27906576  .00013854  00000-0  22355-2 0  9990
2 34482  74.0360 119.8035 0040024 171.3465 252.9781 14.70906842889748
Epoch: 2026-02-04T06:41Z
TLE epoch observation values (Epoch: 2026-02-04T06:41:51.281Z)
Latitude
59.7959°
Longitude
-85.84769°
Altitude
676.335 km
Speed
7.52 km/s
True Right ascension
09h 56m 15s
True Declination
59° 38' 40"
Sunlit
Object was in full shadow at epoch
Visualization orbit readout
Latitude
Unknown
Longitude
Unknown
Altitude
Unknown
Speed
Unknown
Apparent Right ascension
Unknown
Apparent Declination
Unknown
Sunlit
N/A
Visualization observer readout
Local Sidereal Time
13:58:57
Azimuth
Unknown
Elevation
Unknown
Doppler factor
Unknown
Orbital elements
Apogee altitude
683.913 km
Perigee altitude
627.608 km
Semi-major axis
7,033.897 km
Eccentricity
0.004
Inclination
74.036°
RAAN
119.8035°
Arg. of periapsis
171.3465°
True anomaly
252.5402°
Mean anomaly
252.9781°
Eccentric anomaly
252.75908°
Mean motion
3.67916 °/min
Orbital period
97.85 mins
BSTAR
0.0022355
Loading maneuver chart data...
Computing Atmospheric mass density...

Documentation

Showing up to 5 results
|